Tracking 19245 objects as of 14-Aug-2018
HD Live streaming from Space Station
objects crossing your sky now

NOAA 16 DEB

Track NOAA 16 DEB now!
10-day predictions


NORAD ID: 41375
Int'l Code: 2000-055JU
Perigee: 820.6 km
Apogee: 862.5 km
Inclination: 98.9 °
Period: 101.6 minutes
Semi major axis: 7212 km
RCS: Unknown
Launch date: September 21, 2000
Source: United States (US)
Launch site: AIR FORCE WESTERN TEST RANGE (AFWTR)

Note: This is SATELLITE DEBRIS
aabbcc
Your satellite tracking list
Your tracking list is empty




NASA's NSSDC Master Catalog

Two Line Element Set (TLE):
1 41375U 00055JU  18225.06449689 +.00001012 +00000-0 +52058-3 0  9991
2 41375 098.9485 311.5185 0029101 120.3956 240.0100 14.17324363132331
Source of the keplerian elements: AFSPC